WB7UVH Weather Reports


Display with metric or nautical units.
time (UTC)temp
F
wind
direction
speed
MPH
gust
MPH
rain 1hr
in
rain 24hr
in
rain mn
in
humidity
%
barometer
mb
20200229060005 43 270 1.0 7.0 0.00 0.07 0.07 91 1024.8
20200229050005 44 270 1.0 8.0 0.01 0.07 0.07 90 1024.7
20200229040005 46 257 6.0 16.0 0.06 0.06 0.06 86 1024.1
20200229030004 49 277 3.0 12.0 0.00 0.00 0.00 76 1023.4
20200229020005 51 271 5.0 10.0 0.00 0.00 0.00 68 1023.2
20200229010005 54 258 7.0 17.0 0.00 0.00 0.00 62 1022.7
20200229000006 57 241 6.0 20.0 0.00 0.00 0.00 57 1022.7
20200228230005 58 240 5.0 13.0 0.00 0.00 0.00 61 1022.3
20200228220005 57 235 5.0 10.0 0.00 0.00 0.00 62 1022.5
20200228210004 55 206 2.0 12.0 0.00 0.00 0.00 66 1023.3
20200228200004 52 275 1.0 9.0 0.00 0.00 0.00 70 1023.8
20200228190005 48 239 2.0 7.0 0.00 0.00 0.00 81 1024.2
20200228180010 42 222 1.0 3.0 0.00 0.00 0.00 97 1025.1
20200228170005 39 71 0.0 1.0 0.00 0.00 0.00 96 1026.0
20200228160005 38 44 0.0 1.0 0.00 0.00 0.00 96 1026.1
20200228150005 37 12 0.0 0.0 0.00 0.00 0.00 95 1026.3
20200228140005 38 12 0.0 0.0 0.00 0.00 0.00 95 1026.8
20200228130005 38 12 0.0 0.0 0.00 0.00 0.00 94 1027.2
20200228120005 39 12 0.0 0.0 0.00 0.00 0.00 94 1027.4
20200228110005 39 341 0.0 1.0 0.00 0.00 0.00 93 1027.7
20200228100004 40 341 0.0 1.0 0.00 0.00 0.00 93 1028.4
20200228090005 41 180 0.0 1.0 0.00 0.00 0.00 91 1029.3
20200228080034 42 330 0.0 0.0 0.00 0.00 0.00 89 1030.0
20200228070058 43 304 0.0 0.0 0.00 0.00 0.00 88 1030.8